[[{"header":{"parameterUnit":"m.s-1","parameterCategory":1,"la1":30.2991,"la2":30.254,"lo1":-89.0895,"lo2":-89.0444,"dy":0.0017,"dx":0.0017,"nx":28,"ny":28,"refTime":"2023-08-22T03:00:00:Z","depth":0,"parameterNumber":2,"parameterNumberName":"U-component_of_WINDS"},"data":[0,0,0,0,0,0,0,0,0,0,0,0,0,0,0,0,0,0,0,0,0,0,0,0,0,0,0,0,0,0,0,0,0,0,0,0,0,0,0,0,0,0,0,0,0,0,0,0,0,0,0,0,0,0,0,0,0,0,-3.3846,-3.3845,0,-3.379,-3.3789,-3.3789,-3.3638,-3.3635,-3.3632,-3.3629,-3.3575,-3.3577,-3.3579,0,0,0,0,0,0,0,0,0,0,0,0,0,-3.3827,-3.3828,-3.3846,-3.3845,-3.3845,-3.379,-3.3789,-3.3789,-3.3639,-3.3635,-3.3631,-3.3627,-3.3575,-3.3577,-3.3579,0,0,0,0,0,0,0,0,0,0,0,0,0,-3.381,-3.3828,-3.3846,-3.3763,-3.3755,-3.379,-3.3789,-3.3788,-3.364,-3.3635,-3.363,-3.3625,-3.3574,-3.3577,-3.3579,-3.3691,0,0,-3.3586,-3.3587,0,0,0,0,0,0,0,0,-3.3811,-3.381,-3.3776,-3.3769,-3.376,-3.3716,-3.3763,-3.3756,-3.3641,-3.3684,-3.3629,-3.3623,-3.3626,-3.3624,-3.3625,-3.3689,-3.3687,-3.3587,-3.3588,-3.3589,-3.359,0,0,0,0,0,0,0,-3.3812,-3.3812,-3.3824,-3.3776,-3.3766,-3.373,-3.3722,-3.3761,-3.3683,-3.3679,-3.3668,-3.3664,-3.3621,-3.3623,-3.3622,-3.3686,-3.3587,-3.3589,-3.359,-3.3591,-3.3838,-3.3843,0,0,0,0,0,0,-3.3825,-3.3814,-3.3826,-3.3822,-3.3774,-3.3734,-3.3725,-3.3735,-3.3682,-3.3669,-3.3668,-3.3657,-3.3621,-3.362,-3.362,-3.3746,-3.3589,-3.3591,-3.3593,-3.3833,-3.384,-3.3845,0,0,0,0,0,0,-3.3825,-3.3827,-3.3828,-3.3815,-3.3812,-3.374,-3.3752,-3.3737,-3.3738,-3.3673,-3.3659,-3.3683,-3.3617,-3.3616,-3.3674,-3.3742,-3.3592,-3.3595,-3.3827,-3.3835,-3.3842,-3.4001,0,0,0,0,0,0,-3.3825,-3.3828,-3.3869,-3.3817,-3.3814,-3.3882,-3.3756,-3.3739,-3.3742,-3.3727,-3.3684,-3.3672,-3.3613,-3.3671,-3.3677,-3.3743,-3.3597,-3.3821,-3.3831,-3.384,-3.399,-3.4013,-3.4034,0,0,0,0,0,-3.3825,-3.3917,-3.3872,-3.3874,-3.3863,-3.3887,-3.3885,-3.3813,-3.3748,-3.3789,-3.3748,-3.3674,-3.3735,-3.3679,-3.3683,-3.3751,-3.3816,-3.3828,-3.3839,-3.398,-3.4009,-3.4033,0,0,0,0,0,0,-3.398,-3.3909,-3.3858,-3.3936,-3.3918,-3.3861,-3.391,-3.3847,-3.3848,-3.3835,-3.3747,-3.3739,-3.3809,-3.3786,-3.3725,-3.3857,-3.3763,-3.3776,-3.3869,-3.3896,-3.3917,-3.392,-3.3599,0,0,0,0,0,-3.4024,-3.4047,-3.3984,-3.4059,-3.4053,-3.3984,-3.3992,-3.3938,-3.3917,-3.3909,-3.3872,-3.3855,-3.387,-3.3882,-3.3893,-3.3987,-3.3975,-3.4036,-3.4058,-3.4076,-3.4088,-3.4135,-3.4161,-3.3883,-3.3883,-3.3883,0,0,-3.4113,-3.4077,-3.4098,-3.409,-3.407,-3.4097,-3.3979,-3.4013,-3.4032,-3.3915,-3.3965,-3.3939,-3.3914,-3.399,-3.4022,-3.3974,-3.4163,-3.4091,-3.4106,-3.4108,-3.4149,-3.4176,-3.4199,-3.3891,-3.3889,-3.3888,0,0,-3.429,-3.4266,-3.4325,-3.4307,-3.4278,-3.4231,-3.4246,-3.4199,-3.4175,-3.4225,-3.4137,-3.4161,-3.4189,-3.4174,-3.4171,-3.4344,-3.4276,-3.435,-3.4465,-3.4512,-3.4534,-3.4553,-3.4613,-3.4635,-3.4363,-3.4363,-3.4363,0,-3.4406,-3.4442,-3.4364,-3.4403,-3.4402,-3.4296,-3.4355,-3.4342,-3.4319,-3.4322,-3.4268,-3.43,-3.4277,-3.4347,-3.4389,-3.4391,-3.4404,-3.4353,-3.4537,-3.4555,-3.4571,-3.4628,-3.4651,-3.4372,-3.4371,-3.437,-3.4369,0,-3.4584,-3.4611,-3.4663,-3.4641,-3.4646,-3.4696,-3.4626,-3.4641,-3.4588,-3.4548,-3.46,-3.4568,-3.457,-3.4583,-3.4533,-3.4647,-3.4617,-3.4552,-3.4456,-3.4608,-3.466,-3.4681,-3.4385,-3.4382,-3.4379,-3.4377,0,0,-3.4856,-3.479,-3.481,-3.4798,-3.4759,-3.4779,-3.4825,-3.4824,-3.4838,-3.4827,-3.4862,-3.4889,-3.4828,-3.4824,-3.4771,-3.4813,-3.495,-3.4741,-3.4739,-3.478,-3.5073,-3.5121,-3.5147,-3.4906,-3.4909,-3.4912,-3.5074,0,-3.502,-3.5091,-3.5023,-3.5108,-3.5132,-3.5032,-3.5072,-3.5053,-3.5017,-3.5033,-3.4994,-3.5013,-3.4932,-3.4928,-3.4965,-3.4926,-3.5007,-3.4913,-3.4937,-3.4939,-3.4944,-3.5174,-3.5225,-3.5378,-3.5094,-3.5097,-3.51,0,-3.5222,-3.5217,-3.5305,-3.5259,-3.5266,-3.5303,-3.5297,-3.5314,-3.529,-3.5261,-3.5258,-3.5193,-3.5235,-3.5144,-3.5201,-3.5138,-3.5145,-3.5127,-3.5131,-3.5129,-3.5027,-3.5176,-3.5426,-3.5448,-3.5131,-3.5128,-3.5126,0,-3.5408,-3.5425,-3.5478,-3.5472,-3.5421,-3.5449,-3.5429,-3.5401,-3.5405,-3.5402,-3.5403,-3.5406,-3.5407,-3.5411,-3.5349,-3.5288,-3.5413,-3.5316,-3.539,-3.5392,-3.5419,-3.5417,-3.5671,-3.5428,-3.5427,-3.5427,-3.5426,0,-3.5598,-3.5655,-3.5561,-3.5594,-3.5655,-3.5577,-3.564,-3.561,-3.5587,-3.5613,-3.5529,-3.5555,-3.5473,-3.5491,-3.5444,-3.5497,-3.5499,-3.5477,-3.5463,-3.5483,-3.5486,-3.5484,-3.5471,-3.5433,-3.5432,-3.543,-3.5429,0,-3.5815,-3.5755,-3.5807,-3.5754,-3.5742,-3.5789,-3.5744,-3.5773,-3.5733,-3.5767,-3.5771,-3.5707,-3.5724,-3.5663,-3.5672,-3.5639,-3.5718,-3.5688,-3.5725,-3.5715,-3.5791,-3.5784,-3.6051,-3.6082,-3.5821,-3.5824,-3.5826,0,-3.5939,-3.598,-3.5931,-3.5942,-3.5926,-3.5945,-3.5949,-3.5874,-3.5882,-3.5859,-3.5891,-3.5901,-3.5905,-3.5938,-3.5893,-3.5899,-3.5867,-3.596,-3.5867,-3.5885,-3.5866,-3.5863,-3.5866,-3.5979,-3.5982,-3.5984,-3.5987,0,-3.6165,-3.6133,-3.614,-3.6138,-3.6144,-3.614,-3.6129,-3.6143,-3.6063,-3.6076,-3.6092,-3.6095,-3.6103,-3.6114,-3.611,-3.6091,-3.6026,-3.6017,-3.6033,-3.6053,-3.6072,-3.6061,-3.5775,-3.601,-3.6008,-3.6006,-3.6005,-3.6004,-3.6337,-3.6368,-3.6339,-3.635,-3.6334,-3.6326,-3.635,-3.6312,-3.6324,-3.6322,-3.6279,-3.6304,-3.628,-3.6268,-3.6256,-3.6274,-3.6231,-3.6256,-3.6262,-3.6269,-3.6281,-3.6071,-3.6274,-3.6273,-3.6272,-3.6272,-3.6271,0,-3.6556,-3.6532,-3.6544,-3.653,-3.654,-3.6477,-3.6463,-3.6475,-3.6497,-3.648,-3.6485,-3.6504,-3.6514,-3.6471,-3.6475,-3.6499,-3.6469,-3.6503,-3.6499,-3.6495,-3.632,-3.6304,-3.6526,-3.6526,-3.6526,-3.6526,-3.6526,-3.6526,-3.6671,-3.672,-3.6685,-3.6726,-3.6702,-3.6724,-3.6721,-3.6713,-3.6699,-3.6723,-3.673,-3.6702,-3.6674,-3.6676,-3.6684,-3.6671,-3.6675,-3.6719,-3.6696,-3.6533,-3.6508,-3.6484,-3.6468,-3.6721,-3.6721,-3.6868,-3.687,-3.6871]},{"header":{"parameterUnit":"m.s-1","parameterCategory":1,"la1":30.2991,"la2":30.254,"lo1":-89.0895,"lo2":-89.0444,"dy":0.0017,"dx":0.0017,"nx":28,"ny":28,"refTime":"2023-08-22T03:00:00:Z","depth":0,"parameterNumber":3,"parameterNumberName":"V-component_of_WINDS"},"data":[0,0,0,0,0,0,0,0,0,0,0,0,0,0,0,0,0,0,0,0,0,0,0,0,0,0,0,0,0,0,0,0,0,0,0,0,0,0,0,0,0,0,0,0,0,0,0,0,0,0,0,0,0,0,0,0,0,0,0.0968,0.0967,0,0.0863,0.0862,0.0861,0.0768,0.0767,0.0766,0.0765,0.0655,0.0653,0.0651,0,0,0,0,0,0,0,0,0,0,0,0,0,0.1089,0.1087,0.0968,0.0967,0.0966,0.0863,0.0862,0.086,0.0768,0.0767,0.0766,0.0765,0.0656,0.0653,0.0651,0,0,0,0,0,0,0,0,0,0,0,0,0,0.1015,0.1086,0.0969,0.0908,0.0901,0.0864,0.0862,0.086,0.0769,0.0767,0.0766,0.0764,0.0656,0.0653,0.0651,0.0664,0,0,0.0642,0.064,0,0,0,0,0,0,0,0,0.1019,0.1011,0.0918,0.0912,0.0904,0.0827,0.0864,0.0794,0.0769,0.0819,0.0765,0.0763,0.0713,0.0706,0.0689,0.0659,0.0654,0.0641,0.064,0.0638,0.0637,0,0,0,0,0,0,0,0.1025,0.1015,0.0927,0.0917,0.0908,0.0885,0.0873,0.085,0.0776,0.0814,0.0808,0.0796,0.0709,0.0692,0.0686,0.0653,0.0641,0.0639,0.0637,0.0636,0.0629,0.063,0,0,0,0,0,0,0.1039,0.102,0.093,0.0923,0.0959,0.0884,0.0871,0.0854,0.0776,0.0763,0.0798,0.0793,0.0698,0.069,0.0682,0.0693,0.0638,0.0636,0.0634,0.0627,0.0629,0.0631,0,0,0,0,0,0,0.1042,0.1032,0.0934,0.097,0.0955,0.0884,0.0865,0.0852,0.0835,0.0764,0.075,0.0794,0.0697,0.0686,0.0669,0.0688,0.0634,0.0632,0.0625,0.0628,0.063,0.0715,0,0,0,0,0,0,0.1046,0.1034,0.1038,0.0971,0.0954,0.0924,0.0867,0.0851,0.0831,0.0823,0.0757,0.0744,0.0694,0.0674,0.0667,0.0683,0.0629,0.0623,0.0627,0.0629,0.071,0.072,0.0728,0,0,0,0,0,0.1051,0.1066,0.1039,0.1029,0.0958,0.0926,0.0916,0.0859,0.0833,0.0836,0.0791,0.0746,0.0687,0.0674,0.0664,0.0679,0.0622,0.0626,0.0629,0.0706,0.0718,0.0728,0,0,0,0,0,0,0.1136,0.1056,0.1025,0.1019,0.098,0.091,0.0913,0.0874,0.0841,0.0834,0.0765,0.0751,0.0742,0.0709,0.0695,0.0689,0.0649,0.0651,0.071,0.0721,0.073,0.0738,0.0627,0,0,0,0,0,0.1155,0.1136,0.1066,0.1067,0.1049,0.0985,0.0968,0.0929,0.0885,0.0868,0.0821,0.078,0.0752,0.0735,0.0705,0.0705,0.069,0.0711,0.072,0.0728,0.073,0.0728,0.0737,0.0642,0.0642,0.0642,0,0,0.1192,0.1145,0.1137,0.1083,0.1048,0.1029,0.0971,0.0954,0.0939,0.0864,0.0846,0.0811,0.0761,0.0753,0.0747,0.0725,0.0753,0.0733,0.0739,0.0737,0.0733,0.0742,0.075,0.0645,0.0644,0.0644,0,0,0.125,0.1213,0.121,0.1177,0.1126,0.1083,0.1083,0.1019,0.0993,0.0974,0.0918,0.09,0.0853,0.082,0.0797,0.0845,0.0803,0.0837,0.0884,0.0883,0.089,0.0896,0.0913,0.092,0.084,0.084,0.084,0,0.1302,0.1272,0.1213,0.12,0.1177,0.1111,0.1107,0.1078,0.1019,0.1005,0.0982,0.0923,0.0884,0.0868,0.088,0.0864,0.0861,0.0844,0.0894,0.09,0.0905,0.092,0.0927,0.0844,0.0844,0.0843,0.0843,0,0.1339,0.132,0.1323,0.127,0.1248,0.124,0.1179,0.1165,0.1127,0.1087,0.1069,0.1021,0.0981,0.0974,0.0937,0.0953,0.0941,0.0907,0.0865,0.0919,0.0933,0.0938,0.0851,0.0849,0.0848,0.0847,0,0,0.1446,0.1362,0.1364,0.1339,0.1279,0.1262,0.1251,0.1213,0.1202,0.1164,0.1153,0.1116,0.1085,0.1059,0.1017,0.1017,0.1058,0.0982,0.098,0.0998,0.1073,0.1099,0.1107,0.1031,0.1031,0.1032,0.1077,0,0.1493,0.147,0.1418,0.1411,0.1392,0.133,0.132,0.1282,0.1245,0.1223,0.1182,0.1157,0.1117,0.1101,0.1098,0.1054,0.1072,0.105,0.1019,0.1018,0.1032,0.1113,0.114,0.1185,0.1082,0.1083,0.1084,0,0.1545,0.1513,0.1505,0.1446,0.1436,0.1429,0.139,0.1371,0.1326,0.1299,0.1272,0.1227,0.1212,0.1175,0.1153,0.1139,0.1123,0.11,0.11,0.1094,0.1053,0.1109,0.1198,0.1204,0.1091,0.1091,0.109,0,0.1624,0.1578,0.1567,0.1548,0.148,0.1476,0.1448,0.1402,0.1383,0.1349,0.1336,0.1301,0.1282,0.1256,0.1202,0.118,0.1187,0.1145,0.1163,0.1165,0.1166,0.1167,0.1253,0.1158,0.1158,0.1158,0.1158,0,0.1681,0.1679,0.1602,0.1595,0.159,0.1531,0.1527,0.1493,0.1453,0.1438,0.1382,0.137,0.1301,0.128,0.1238,0.1227,0.1218,0.1196,0.1185,0.12,0.1203,0.1188,0.1183,0.1159,0.1159,0.1159,0.1158,0,0.1767,0.1716,0.17,0.1638,0.1622,0.1622,0.1568,0.1559,0.152,0.1502,0.1494,0.1432,0.1405,0.135,0.1307,0.1279,0.1277,0.1258,0.1292,0.1285,0.1307,0.1306,0.1386,0.1393,0.1295,0.1296,0.1297,0,0.1807,0.1804,0.1742,0.1729,0.1703,0.1682,0.1663,0.1605,0.1587,0.1537,0.1534,0.1503,0.1475,0.1435,0.1386,0.1353,0.1332,0.1363,0.1326,0.1343,0.1332,0.1332,0.1332,0.137,0.1372,0.1373,0.1374,0,0.1883,0.1859,0.1834,0.18,0.178,0.175,0.1718,0.171,0.1644,0.1627,0.1599,0.1578,0.1535,0.1505,0.1466,0.1435,0.1394,0.1386,0.1388,0.1404,0.1424,0.1413,0.1314,0.1384,0.1383,0.1382,0.1381,0.1381,0.1947,0.1941,0.1897,0.1872,0.1842,0.1813,0.1802,0.1762,0.1739,0.17,0.1667,0.1643,0.16,0.1543,0.1515,0.1495,0.1474,0.1478,0.1479,0.1481,0.1487,0.1428,0.1488,0.1487,0.1487,0.1487,0.1486,0,0.202,0.1989,0.1966,0.1923,0.1904,0.1868,0.1831,0.1816,0.1795,0.1759,0.1733,0.1702,0.1673,0.1623,0.159,0.1583,0.1563,0.1576,0.1575,0.1569,0.1508,0.1509,0.1593,0.1593,0.1593,0.1593,0.1593,0.1593,0.2055,0.2044,0.2015,0.1988,0.1957,0.1934,0.1916,0.1889,0.186,0.1828,0.1804,0.1772,0.173,0.1694,0.1666,0.1651,0.1641,0.1661,0.1641,0.1584,0.1574,0.1564,0.1564,0.1659,0.1659,0.1704,0.1704,0.1704]}]]